Flag for France Weather past 2 weeks in Le Mans, France

Now
28 °F

Clear.


Feels Like: 28 °F
Forecast: 33 / 58 °F
Wind: 2 mph from North

Location: Le Mans Airport

Current Time: Mar 6, 2015 at 4:21:45 AM

Latest Report: Mar 6, 2015 at 4:00 AM


Visibility: 4 mi

Pressure: 30.69 "Hg

Humidity: 93%

Dew point: 27 °F

Location of Le MansLocation

Historic Weather in Le Mans — Graph

°F

Le Mans temperature yesterday

Maximum temperature yesterday: 54 °F (at 3:00 PM)
Minimum temperature yesterday: 27 °F (at 4:30 AM)
Average temperature yesterday: 40 °F

Past Weeks' High & Low Weather Summary

 TemperatureHumidityPressure
High55 °F (Mar 1, 4:00 PM)100% (Feb 19, 3:30 AM)30.77 "Hg (Feb 19, 3:30 AM)
Low27 °F (Feb 22, 5:30 AM)38% (Feb 27, 4:00 PM)29.47 "Hg (Feb 23, 4:30 AM)
Average44 °F79%30.05 "Hg
* Reported Feb 19 3:00 AM — Mar 6 3:00 AM, Le Mans, Weather by CustomWeather, © 2015

Note: Actual official high and low records may vary slightly from our data, if they occured in-between our weather recording intervals... More about our weather records

Advertising

Le Mans weather history for previous 24 hours

 ConditionsComfort  
Time TempWeatherWind HumidityBarometerVisibility
3:00 AM
Fri, Mar 6
30 °FClear.2 mph93%30.69 "Hg5 mi
2:30 AM30 °FClear.No wind93%30.69 "Hg5 mi
2:00 AM30 °FClear.No wind93%30.69 "Hg5 mi
1:30 AM32 °FClear.2 mph87%30.69 "Hg6 mi
1:00 AM32 °FClear.No wind93%30.69 "Hg6 mi
12:30 AM32 °FClear.No wind93%30.69 "Hg6 mi
12:00 AM34 °FClear.1 mph87%30.69 "HgN/A
11:30 PM
Thu, Mar 5
34 °FClear.1 mph87%30.69 "HgN/A
11:00 PM34 °FClear.No wind93%30.69 "HgN/A
10:30 PM36 °FClear.2 mph87%30.69 "HgN/A
10:00 PM37 °FClear.No wind81%30.69 "HgN/A
9:30 PM37 °FClear.No wind81%30.69 "HgN/A
9:00 PM39 °FClear.No wind75%30.69 "HgN/A
8:30 PM43 °FClear.No wind66%30.69 "HgN/A
8:00 PM45 °FClear.1 mph61%30.69 "HgN/A
7:30 PM48 °FPassing clouds.1 mph54%30.69 "HgN/A
7:00 PM50 °FClear.3 mph50%30.69 "HgN/A
6:30 PM50 °FPassing clouds.3 mph50%30.69 "HgN/A
6:00 PM52 °FScattered clouds.6 mph47%30.69 "HgN/A
5:30 PM52 °FCool.3 mph47%30.69 "HgN/A
5:00 PM54 °FClear.3 mph47%30.69 "HgN/A
4:30 PM54 °FPassing clouds.5 mph47%30.69 "HgN/A
4:00 PM54 °FClear.3 mph44%30.69 "HgN/A
3:30 PM54 °FPassing clouds.6 mph44%30.69 "HgN/A
3:00 PM54 °FClear.6 mph47%30.69 "HgN/A
2:30 PM52 °FClear.6 mph47%30.69 "HgN/A
2:00 PM52 °FClear.6 mph47%30.72 "HgN/A
1:30 PM52 °FClear.6 mph47%30.72 "HgN/A
1:00 PM50 °FClear.5 mph54%30.74 "HgN/A
12:30 PM50 °FClear.5 mph54%30.74 "HgN/A
12:00 PM50 °FClear.2 mph58%30.74 "HgN/A
11:30 AM48 °FClear.2 mph62%30.74 "HgN/A
11:00 AM46 °FClear.No wind71%30.74 "HgN/A
10:30 AM43 °FClear.2 mph76%30.74 "HgN/A
10:00 AM39 °FClear.1 mph81%30.77 "HgN/A
9:30 AM36 °FClear.No wind87%30.77 "HgN/A
9:00 AM32 °FClear.No wind93%30.74 "Hg6 mi
8:30 AM28 °FClear.No wind100%30.74 "Hg5 mi
8:00 AM27 °FClear.2 mph100%30.74 "Hg6 mi
7:30 AM27 °FClear.1 mph93%30.74 "HgN/A
7:00 AM27 °FClear.No wind93%30.74 "HgN/A
6:30 AM27 °FClear.No wind93%30.72 "Hg6 mi
6:00 AM27 °FClear.No wind100%30.72 "HgN/A
5:30 AM27 °FClear.1 mph100%30.72 "HgN/A
5:00 AM28 °FClear.1 mph93%30.72 "HgN/A
4:30 AM27 °FClear.No wind93%30.72 "HgN/A
4:00 AM28 °FClear.No wind93%30.72 "HgN/A
Weather by CustomWeather, © 2015

See weather overviewHow to use our weather pages